Regional Weather Roundup
Issued by NWS

Home | Current Version | Previous Version | Graphics & Text | Print | Product List | Glossary On
Versions: 1 2 3 4 5 6 7 8 9 10 11 12 13 14 15 16 17 18 19 20 21 22 23 24 25 26 27 28 29 30 31 32 33 34 35 36 37 38 39 40 41 42 43 44 45 46 47 48 49 50
000
ASUS43 KDMX 200507
RWRIA

WEATHER ROUNDUP FOR IOWA
NATIONAL WEATHER SERVICE DES MOINES IA
1100 PM CST FRI DEC 19 2014

NOTE: "FAIR" INDICATES FEW OR NO CLOUDS BELOW 12,000 FEET WITH NO
SIGNIFICANT WEATHER AND/OR OBSTRUCTIONS TO VISIBILITY.

* - THESE STATIONS ARE NOT NWS STATIONS...THUS NOT UNDER NWS
QUALITY CONTROL.  THEY ALSO DO NOT REPORT WEATHER SUCH
AS PRECIPITATION OR FOG.

IAZ001>003-012>014-020>022-031>034-043>046-200600-
   NORTHWEST IOWA

CITY           SKY/WX    TMP DP  RH WIND       PRES   REMARKS
CARROLL *      CLOUDY    28  28 100 SW13      30.16R FOG     WCI  18
CHEROKEE *     CLOUDY    30  30 100 S9        30.13S FOG     WCI  22
DENISON *      CLOUDY    30  30 100 S9        30.13R FOG     WCI  22
LE MARS *      CLOUDY    32  30  93 SE9       30.11S WCI  24
ORANGE CITY *  CLOUDY    32  28  86 SE6       30.09F FOG     WCI  26
SHELDON *      CLOUDY    30  30 100 S10       30.09F FOG     WCI  21
SIOUX CITY     CLOUDY    33  29  85 SE9       30.11S WCI  25
SPENCER        CLOUDY    32  28  85 S13       30.13R WCI  22
STORM LAKE *   CLOUDY    28  28 100 S10G17    30.14R FOG     WCI  19
$$

IAZ055>058-069>071-079>083-090>094-200600-
   SOUTHWEST IOWA

CITY           SKY/WX    TMP DP  RH WIND       PRES   REMARKS
ATLANTIC *     CLOUDY    30  28  93 S8G15     30.16S WCI  23
AUDUBON *      CLOUDY    28  25  86 S7        30.17R WCI  21
CLARINDA *     CLOUDY    30  28  93 S9        30.20F WCI  22
COUNCIL BLFS * CLOUDY    30  30 100 SE8       30.13S FOG     WCI  23
CRESTON *      CLOUDY    28  28 100 SW8       30.17F WCI  20
HARLAN  *      CLOUDY    30  30 100 S8        30.19S FOG     WCI  23
LAMONI         CLOUDY    31  30  96 SW8       30.19R FOG     WCI  23
RED OAK *      CLOUDY    30  28  93 S10       30.17F WCI  21
SHENANDOAH *   CLOUDY    30  30 100 S9        30.18S WCI  22
$$

IAZ047>049-059>061-072>074-084-200600-
   CENTRAL IOWA

CITY           SKY/WX    TMP DP  RH WIND       PRES   REMARKS
AMES           CLOUDY    29  28  96 SE8       30.19S FOG     WCI  21
ANKENY *       CLOUDY    30  30 100 SE5       30.20S FOG     WCI  25
CHARITON *     CLOUDY    32  32 100 SE7       30.19S FOG     WCI  26
DES MOINES     FRZ DRZL  32  30  92 S6        30.20R FOG     WCI  26
GRINNELL*      CLOUDY    30  27  86 S7        30.21S WCI  23
KNOXVILLE *    CLOUDY    30  28  93 SE7       30.19S FOG     WCI  23
MARSHALLTOWN   CLOUDY    29  25  85 SE9       30.19F WCI  20
PELLA *        CLOUDY    31  27  87 SE5       30.23S FOG     WCI  26
PERRY *        CLOUDY    32  32 100 SW10      30.18S FOG     WCI  24
$$

IAZ004>006-015-016-023>025-035-036-200600-
   NORTH CENTRAL IOWA

CITY           SKY/WX    TMP DP  RH WIND       PRES   REMARKS
ALGONA *       FOG       30  30 100 S9        30.15S VSB 1/4 WCI  22
CLARION *      CLOUDY    30  30 100 S13       30.17S FOG     WCI  20
ESTHERVILLE    CLOUDY    30  29  96 S9        30.12S WCI  22
FORT DODGE *   CLOUDY    30  28  93 S9        30.17R WCI  22
MASON CITY     CLOUDY    28  26  92 SE10      30.18S WCI  19
FOREST CITY *  CLOUDY    30  28  93 SE9       30.16S FOG     WCI  22
IOWA FALLS *   CLOUDY    30  27  86 S10       30.19S FOG     WCI  21
$$

IAZ007>011-017>019-026>030-037>042-050>054-066-200600-
   NORTHEAST IOWA

CITY           SKY/WX    TMP DP  RH WIND       PRES   REMARKS
CEDAR RAPIDS   CLOUDY    29  23  78 SE6       30.23S WCI  23
CHARLES CITY * CLOUDY    28  25  86 SE7       30.20S WCI  21
CLINTON *      CLOUDY    27  21  80 SE5       30.28F WCI  21
DECORAH *      CLOUDY    27  23  86 S6        30.20F WCI  20
DUBUQUE        CLOUDY    26  22  84 S8        30.23S WCI  18
MONTICELLO *   CLOUDY    28  25  86 S9        30.24S WCI  20
OELWEIN *      CLOUDY    28  25  86 S7        30.22S WCI  21
WATERLOO       MIX PCPN  29  22  75 S8        30.21S WCI  21
$$

IAZ064-065-067-068-078-200600-
   EAST CENTRAL IOWA

CITY           SKY/WX    TMP DP  RH WIND       PRES   REMARKS
DAVENPORT      CLOUDY    28  22  78 SE7       30.26S WCI  21
IOWA CITY      CLOUDY    30  24  78 SE6       30.26F WCI  24
MT. PLEASANT * CLOUDY    30  27  86 SE5       30.25F WCI  25
MUSCATINE *    CLOUDY    32  25  74 SE3       30.27F
QUAD CITIES    CLOUDY    29  23  78 E3        30.27R
$$

IAZ062-063-075>077-085>089-095>099-200600-
   SOUTHEAST IOWA

CITY           SKY/WX    TMP DP  RH WIND       PRES   REMARKS
BURLINGTON     CLOUDY    31  25  78 S6        30.26R WCI  25
FAIRFIELD *    CLOUDY    30  27  86 SE7       30.24S WCI  23
FORT MADISON * CLOUDY    34  28  80 SE3       30.27R
KEOKUK *       CLOUDY    32  28  86 SE5       30.25S WCI  27
OSKALOOSA *    CLOUDY    30  27  86 S7        30.22F FOG     WCI  23
CENTERVILLE *  CLOUDY    30  30 100 SE7       30.21F FOG     WCI  23
OTTUMWA        CLOUDY    30  25  81 S9        30.22F WCI  22
WASHINGTON *   CLOUDY    30  30 100 S6        30.24F WCI  24
$$

ABBREVIATIONS USED IN REMARKS
   TC - TEMPERATURES IN CELSIUS
  WCI - WIND CHILL INDEX
   HX - HEAT INDEX
  VSB - VISIBILITY
$$



USA.gov is the U.S. government's official web portal to all federal, state and local government web resources and services.